Fort Knox, KY

6:16 PM EDT on April 22, 2018 (GMT -0400)
Godman Army Air Field

Weather History for KFTK - May, 2014

Change the Weather History Date:

Wednesday, May 14, 2014

  Actual Average Record
Temperature  
Mean Temperature 64 °F -  
Max Temperature 69 °F 73 °F 87 °F (1998)
Min Temperature 60 °F 53 °F 41 °F (2000)
Growing Degree Days 14 (Base 50)    
Moisture  
Dew Point 65 °F    
Average Humidity 100    
Maximum Humidity 100    
Minimum Humidity 94    
Precipitation  
Precipitation 1.36 in - - ()
Sea Level Pressure  
Sea Level Pressure 29.97 in    
Wind  
Wind Speed 6 mph (North)    
Max Wind Speed 23 mph    
Max Gust Speed 37 mph    
Visibility 8 miles    
Events Fog , Rain , Thunderstorm    
Averages and records for this station are not official NWS values.
T = Trace of Precipitation, MM = Missing Value Source: NWS Daily Summary

Daily Weather History Graph

Daily Weather History Graph

Search for Another Location

Airport or City:

Astronomy

May. 14, 2014 Rise Set
Actual Time 6:34 AM EDT 8:46 PM EDT
Civil Twilight 6:05 AM EDT 9:15 PM EDT
Nautical Twilight 5:29 AM EDT 9:51 PM EDT
Astronomical Twilight 4:50 AM EDT 10:31 PM EDT
Moon 8:51 PM EDT (5/14) 6:31 AM EDT (5/14)
Length of Visible Light 15h 10m
Length of Day
14h 11m
Full, 100% of the Moon is Illuminated
May 14
Full
May 14
Full
May 21
Last Quarter
May 28
New
Jun 5
First Quarter

Hourly Weather History & Observations

Time (EDT) Temp. Dew Point Humidity Pressure Visibility Wind Dir Wind Speed Gust Speed Precip Events Conditions
12:01 AM 66.2 °F 66.2 °F 100% 30.08 in 10.0 mi North 2.3 mph - N/A   Overcast
12:21 AM 66.2 °F 66.2 °F 100% 30.09 in 10.0 mi West 2.3 mph - N/A   Overcast
12:58 AM 65.7 °F 65.7 °F 100% 30.08 in 10.0 mi NNW 5.8 mph - 0.00 in   Overcast
1:58 AM 65.7 °F 65.7 °F 100% 30.07 in 10.0 mi NW 3.5 mph - N/A   Overcast
2:28 AM 64.4 °F 64.4 °F 100% 30.07 in 10.0 mi NNW 3.5 mph - N/A   Overcast
2:43 AM 64.4 °F 64.4 °F 100% 30.07 in 10.0 mi NW 4.6 mph - N/A   Overcast
2:58 AM 64.8 °F 64.8 °F 100% 30.06 in 10.0 mi NW 3.5 mph - N/A   Overcast
3:38 AM 64.4 °F 64.4 °F 100% 30.06 in 10.0 mi NW 6.9 mph - N/A   Overcast
3:48 AM 64.4 °F 64.4 °F 100% 30.06 in 10.0 mi NW 5.8 mph - N/A   Overcast
3:53 AM 64.4 °F 64.4 °F 100% 30.07 in 10.0 mi NW 5.8 mph - N/A   Overcast
3:58 AM 63.5 °F 63.5 °F 100% 30.05 in 10.0 mi NW 5.8 mph - N/A   Overcast
4:18 AM 62.6 °F 62.6 °F 100% 30.06 in 9.0 mi WNW 6.9 mph - N/A   Overcast
4:33 AM 62.6 °F 62.6 °F 100% 30.06 in 9.0 mi WNW 5.8 mph - N/A   Overcast
4:43 AM 62.6 °F 62.6 °F 100% 30.06 in 9.0 mi NW 8.1 mph - N/A   Overcast
4:58 AM 62.6 °F 62.6 °F 100% 30.04 in 10.0 mi NW 8.1 mph - N/A   Overcast
5:43 AM 62.6 °F 62.6 °F 100% 30.05 in 9.0 mi NNW 8.1 mph - N/A   Overcast
5:58 AM 62.1 °F 62.1 °F 100% 30.04 in 8.0 mi NW 5.8 mph - N/A   Overcast
6:53 AM 60.8 °F 60.8 °F 100% 30.06 in 2.5 mi WNW 8.1 mph - N/A   Overcast
6:54 AM 60.8 °F 60.8 °F 100% 30.06 in 2.5 mi West 8.1 mph - N/A Rain Light Rain
6:58 AM 61.3 °F 61.3 °F 100% 30.06 in 2.5 mi NW 5.8 mph - 0.00 in Rain Light Rain
7:03 AM 60.8 °F 60.8 °F 100% 30.07 in 1.2 mi NNW 4.6 mph - N/A Rain Light Rain
7:08 AM 60.8 °F 60.8 °F 100% 30.07 in 0.5 mi NW 5.8 mph - N/A Fog , Rain Heavy Rain
7:18 AM 60.8 °F 60.8 °F 100% 30.06 in 1.2 mi North 5.8 mph - N/A Rain , Thunderstorm Light Rain
7:23 AM 60.8 °F 60.8 °F 100% 30.06 in 5.0 mi NE 2.3 mph - N/A Rain , Thunderstorm Light Rain
7:28 AM 60.8 °F 60.8 °F 100% 30.07 in 7.0 mi Calm Calm - N/A Rain Light Rain
7:33 AM 60.8 °F 60.8 °F 100% 30.07 in 6.0 mi Calm Calm - N/A Rain Light Rain
7:53 AM 62.6 °F 62.6 °F 100% 30.05 in 9.0 mi NE 6.9 mph - N/A Rain Light Rain
7:58 AM 61.9 °F 61.9 °F 100% 30.04 in 6.0 mi ENE 8.1 mph - 0.42 in Rain Light Rain
8:03 AM 62.6 °F 62.6 °F 100% 30.05 in 4.0 mi East 8.1 mph - N/A Rain Light Rain
8:13 AM 62.6 °F 62.6 °F 100% 30.06 in 2.5 mi ENE 4.6 mph - N/A Rain Rain
8:23 AM 62.6 °F 62.6 °F 100% 30.06 in 3.0 mi ENE 4.6 mph - N/A Rain Rain
8:38 AM 62.6 °F 62.6 °F 100% 30.05 in 4.0 mi NE 5.8 mph - N/A Rain Light Rain
8:58 AM 62.8 °F 62.8 °F 100% 30.05 in 7.0 mi NNE 5.8 mph - 0.15 in Rain Light Rain
9:58 AM 62.6 °F 62.6 °F 100% 30.04 in 8.0 mi NNW 8.1 mph - 0.08 in Rain Light Rain
10:58 AM 61.9 °F 61.9 °F 100% 30.03 in 9.0 mi North 4.6 mph - 0.06 in Rain Light Rain
11:48 AM 62.6 °F 62.6 °F 100% 30.02 in 10.0 mi NE 4.6 mph - N/A   Overcast
11:58 AM 62.8 °F 62.8 °F 100% 30.02 in 10.0 mi ENE 2.3 mph - 0.02 in   Overcast
12:43 PM 64.4 °F 64.4 °F 100% 30.01 in 10.0 mi Calm Calm - N/A Rain Light Rain
12:53 PM 66.2 °F 66.2 °F 100% 30.00 in 10.0 mi Calm Calm - N/A Rain Light Rain
12:55 PM 66.2 °F 66.2 °F 100% 30.00 in 10.0 mi NW 1.2 mph - N/A   Overcast
12:58 PM 66.2 °F 66.2 °F 100% 30.00 in 10.0 mi Calm Calm - 0.00 in   Overcast
1:08 PM 66.2 °F 66.2 °F 100% 29.99 in 10.0 mi Calm Calm - N/A   Overcast
1:12 PM 66.2 °F 66.2 °F 100% 29.99 in 10.0 mi West 2.3 mph - N/A Rain Light Rain
1:22 PM 66.2 °F 66.2 °F 100% 29.99 in 7.0 mi WNW 2.3 mph - N/A Rain Light Rain
1:32 PM 66.2 °F 66.2 °F 100% 29.98 in 8.0 mi WNW 2.3 mph - N/A Rain Light Rain
1:37 PM 66.2 °F 66.2 °F 100% 29.98 in 6.0 mi WNW 3.5 mph - N/A Rain Light Rain
1:42 PM 66.2 °F 66.2 °F 100% 29.98 in 7.0 mi West 4.6 mph - N/A Rain Light Rain
1:47 PM 66.2 °F 66.2 °F 100% 29.98 in 10.0 mi West 5.8 mph - N/A   Light Drizzle
1:52 PM 66.2 °F 66.2 °F 100% 29.96 in 9.0 mi WNW 5.8 mph - N/A Rain Light Rain
1:58 PM 66.0 °F 66.0 °F 100% 29.97 in 9.0 mi WNW 4.6 mph - 0.02 in Rain Light Rain
2:00 PM 66.2 °F 66.2 °F 100% 29.96 in 10.0 mi NW 5.8 mph - N/A   Overcast
2:45 PM 66.2 °F 66.2 °F 100% 29.94 in 10.0 mi Variable 3.5 mph - N/A   Overcast
2:50 PM 66.2 °F 66.2 °F 100% 29.93 in 10.0 mi North 4.6 mph - N/A   Overcast
2:58 PM 66.7 °F 66.7 °F 100% 29.93 in 10.0 mi North 5.8 mph - 0.00 in   Overcast
3:03 PM 66.2 °F 66.2 °F 100% 29.93 in 10.0 mi North 4.6 mph - N/A   Overcast
3:08 PM 66.2 °F 66.2 °F 100% 29.92 in 10.0 mi NNE 4.6 mph - N/A   Overcast
3:23 PM 68.0 °F 68.0 °F 100% 29.91 in 10.0 mi NNE 3.5 mph - N/A   Overcast
3:38 PM 68.0 °F 68.0 °F 100% 29.91 in 10.0 mi NNE 4.6 mph - N/A   Mostly Cloudy
3:48 PM 68.0 °F 68.0 °F 100% 29.90 in 10.0 mi North 6.9 mph - N/A   Mostly Cloudy
3:58 PM 68.0 °F 68.0 °F 100% 29.90 in 10.0 mi NNE 5.8 mph - N/A   Mostly Cloudy
3:59 PM 68.0 °F 68.0 °F 100% 29.90 in 10.0 mi NNE 5.8 mph - N/A Rain Light Rain
4:14 PM 68.0 °F 68.0 °F 100% 29.89 in 6.0 mi NE 6.9 mph - N/A Rain Light Rain
4:19 PM 68.0 °F 68.0 °F 100% 29.88 in 4.0 mi NE 8.1 mph - N/A Rain Light Rain
4:29 PM 68.0 °F 68.0 °F 100% 29.87 in 5.0 mi NNE 4.6 mph - N/A Rain Light Rain
4:44 PM 68.0 °F 68.0 °F 100% 29.87 in 9.0 mi East 6.9 mph - N/A   Mostly Cloudy
4:58 PM 69.4 °F 69.4 °F 100% 29.88 in 10.0 mi East 9.2 mph - 0.03 in   Mostly Cloudy
5:03 PM 69.8 °F 69.8 °F 100% 29.88 in 10.0 mi East 9.2 mph - N/A   Mostly Cloudy
5:08 PM 69.8 °F 69.8 °F 100% 29.88 in 10.0 mi ESE 6.9 mph - N/A   Mostly Cloudy
5:18 PM 69.8 °F 69.8 °F 100% 29.88 in 10.0 mi ESE 9.2 mph - N/A   Mostly Cloudy
5:19 PM 69.8 °F 69.8 °F 100% 29.88 in 10.0 mi ESE 10.4 mph - N/A Rain Light Rain
5:24 PM 69.8 °F 69.8 °F 100% 29.88 in 7.0 mi ESE 10.4 mph - N/A Rain Light Rain
5:29 PM 69.8 °F 69.8 °F 100% 29.88 in 7.0 mi ESE 12.7 mph - N/A Rain Light Rain
5:58 PM 68.2 °F 68.2 °F 100% 29.88 in 5.0 mi ESE 8.1 mph - 0.04 in Rain Light Rain
6:58 PM 66.7 °F 66.7 °F 100% 29.85 in 9.0 mi SE 15.0 mph - 0.10 in Rain Light Rain
7:23 PM 66.2 °F 66.2 °F 100% 29.84 in 10.0 mi SE 13.8 mph - N/A   Mostly Cloudy
7:31 PM 66.2 °F 66.2 °F 100% 29.85 in 10.0 mi SSE 15.0 mph 20.7 mph N/A Rain Light Rain
7:58 PM 66.2 °F 65.8 °F 99% 29.83 in 10.0 mi SSE 17.3 mph 21.9 mph 0.09 in Rain Light Rain
8:58 PM 66.2 °F 66.2 °F 100% 29.85 in 8.0 mi SSE 19.6 mph 36.8 mph 0.15 in Rain Rain
9:03 PM 66.2 °F 66.2 °F 100% 29.85 in 9.0 mi South 20.7 mph 33.4 mph N/A Rain Rain
9:08 PM 66.2 °F 64.4 °F 94% 29.86 in 10.0 mi South 23.0 mph 33.4 mph N/A Rain Light Rain
9:58 PM 63.1 °F 62.2 °F 97% 29.85 in 10.0 mi South 10.4 mph - 0.11 in Rain Light Rain
10:33 PM 62.6 °F 62.6 °F 100% 29.85 in 10.0 mi South 11.5 mph - N/A Rain Light Rain
10:53 PM 62.6 °F 62.6 °F 100% 29.85 in 10.0 mi South 11.5 mph - N/A Rain Light Rain
10:58 PM 62.4 °F 62.4 °F 100% 29.85 in 10.0 mi South 10.4 mph - 0.03 in Rain Light Rain
11:08 PM 62.6 °F 62.6 °F 100% 29.85 in 10.0 mi SSE 11.5 mph - N/A Rain Light Rain
11:23 PM 62.6 °F 62.6 °F 100% 29.85 in 5.0 mi SSE 11.5 mph - N/A Rain Light Rain
11:28 PM 62.6 °F 62.6 °F 100% 29.85 in 8.0 mi SSE 10.4 mph - N/A Rain Light Rain
11:33 PM 62.6 °F 62.6 °F 100% 29.85 in 10.0 mi SSE 10.4 mph - N/A Rain Light Rain
11:38 PM 62.6 °F 62.6 °F 100% 29.85 in 10.0 mi SSE 11.5 mph - N/A Rain Light Rain
11:58 PM 63.0 °F 63.0 °F 100% 29.84 in 10.0 mi South 6.9 mph - 0.06 in Rain Light Rain